This demonstration page uses our WeatherBlox Daily Observations layout. Learn more.

Left ArrowRight Arrow

41.55636, -103.73856

Hourly Observations for April 16, 2018

Temp ( °F °C ) Dew Point ( °F °C ) Humidity (%) Winds ( mph kmh ) Pressure ( in mb ) Visibility ( mi km ) Precip ( " mm )
12:58 am 00:58 Clear 33 0.4 28 -2.5 81 81 S 14 22 30.08 1019 10 16 N/A
1:58 am 01:58 Clear 32 0.1 27 -2.7 82 82 S 12 19 30.06 1018 10 16 N/A
2:58 am 02:58 Clear 31 -0.7 27 -3 85 85 S 14 22 30.04 1017 10 16 N/A
3:58 am 03:58 Partly Cloudy 30 -0.9 26 -3.5 83 83 S 10 17 30.02 1017 10 16 N/A
4:58 am 04:58 Clear 29 -1.6 25 -4 84 84 S 12 19 30.03 1017 10 16 N/A
5:58 am 05:58 Clear 28 -2 24 -4.3 84 84 S 10 17 30.01 1016 10 16 N/A
6:58 am 06:58 Sunny 28 -2 25 -3.9 87 87 S 10 17 30.00 1016 10 16 N/A
7:58 am 07:58 Sunny 32 0.2 27 -3 79 79 SSW 14 22 30.04 1017 10 16 N/A
8:58 am 08:58 Sunny 38 3.1 28 -2 70 70 S 14 22 30.00 1016 10 16 N/A
9:58 am 09:58 Sunny 44 6.9 31 -0.3 60 60 S 13 20 29.95 1014 10 16 N/A
10:58 am 10:58 Sunny 51 10.6 33 0.3 49 49 SSE 12 19 29.91 1013 10 16 N/A
11:58 am 11:58 Sunny 55 12.6 33 0.7 44 44 SSE 16 26 29.87 1012 10 16 N/A
12:58 pm 12:58 Sunny 57 14 32 0.1 39 39 SSE 18 30 29.85 1011 10 16 N/A
1:58 pm 13:58 Sunny 57 14.1 33 0.5 40 40 SSE 20 31 29.83 1010 10 16 N/A
2:58 pm 14:58 Sunny 53 11.5 31 -0.8 43 43 SSE 21 33 29.84 1011 10 16 N/A
3:58 pm 15:58 Sunny 51 10.6 30 -1 45 45 SSE 20 31 29.84 1011 10 16 N/A
4:58 pm 16:58 Sunny 51 10.6 31 -0.3 47 47 SSE 18 30 29.83 1010 10 16 N/A
5:58 pm 17:58 Sunny 51 10.4 32 -0.2 48 48 S 17 28 29.83 1010 10 16 N/A
6:58 pm 18:58 Sunny 49 9.5 32 -0.2 51 51 SSE 13 20 29.82 1010 10 16 N/A
7:58 pm 19:58 Clear 45 7.3 32 -0.1 60 60 SSE 12 19 29.81 1010 10 16 N/A
8:58 pm 20:58 Clear 44 6.7 30 -1 58 58 SSE 15 24 29.79 1009 10 16 N/A
9:58 pm 21:58 Clear 44 6.4 29 -1.7 57 57 SSE 14 22 29.76 1008 10 16 N/A
10:58 pm 22:58 Clear 42 5.6 28 -2.2 58 58 SE 12 19 29.72 1007 10 16 N/A
11:58 pm 23:58 Clear 41 5.2 28 -2.2 59 59 SSE 18 30 29.66 1005 10 16 N/A

Powered by AerisWeather